Content
SEND FEEDBACK

Daily
Averages
Monthly
Summary
United States of America

MOUNT STORM, WEST VIRGINIA


Home > North America > United States > West Virginia
Elevation: 285 feet     Latitude: 39 17N     Longitude: 079 14W

WEATHER
 
SELECT A DAY
Number of Records: 48,292;   Date Range: 9/1/12 - 11/25/14
 
SHARE

PRINT THIS DATA

[ ← Previous Day ]
WEATHER ALMANAC - JANUARY 31, 2013
[ Next Day → ]
[ °C ]   °F
Weather ElementAverageHighLow
Temperature36.4 °F53.8 °F (1:15 am)31.1 °F (5:55 pm)
Dewpoint22.6 °F46.4 °F (12:35 am)11.8 °F (5:15 pm)
Humidity58 %83 % (5:35 am)44 % (5:15 pm)
Barometer29.68 in29.89 in (7:15 pm)29.24 in (12:35 am)
Wind Speed16.6 mph34.5 mph (2:15 am)
Wind Gust46 mph (2:35 am)
Weather ElementAverage
Visibility8.9 mi
Wind DirectionWSW (258.5 °)

Weather ElementTotal
Precipitation0.21 in
Heating Degree Days22.6 (Base 65)
Averaged from 71 records on January 31, 2013
WEATHER CONDITIONS BREAKOUT
WIND DIRECTION BREAKOUT
WEATHER BY HOUR - JANUARY 31, 2013
[ °C ]   °F
Local TimeTemperatureDewpointHumidityBarometerVisibilityWind DirectionWind SpeedGust SpeedPrecipitationEventsConditions
12:35 AM52.7 °F46.4 °F79 %29.24 in10.0 miSouth (190°)5.8 mph0.01 inRainLight Rain
12:55 AM52.0 °F46.4 °F81 %29.26 in10.0 miWest (260°)3.5 mph0.01 inRainLight Rain
1:15 AM53.8 °F45.5 °F74 %29.28 in7.0 miWest (280°)18.4 mph24.2 mph0.01 inRainRain
1:35 AM50.4 °F41.2 °F71 %29.29 in10.0 miWest (280°)20.7 mph31.1 mph0.02 inRainLight Rain
1:55 AM51.8 °F40.6 °F66 %29.28 in10.0 miWest (280°)17.3 mph29.9 mph0.02 inMostly Cloudy
2:15 AM51.8 °F40.3 °F65 %29.30 in10.0 miWNW (290°)34.5 mph42.6 mphScattered Clouds
2:35 AM45.1 °F36.7 °F72 %29.35 in10.0 miWest (270°)23.0 mph46.0 mph0.07 inScattered Clouds
2:55 AM46.0 °F36.0 °F68 %29.36 in10.0 miWest (270°)21.9 mph33.4 mph0.07 inRainLight Rain
3:15 AM44.4 °F35.6 °F71 %29.36 in10.0 miWest (270°)31.1 mph40.3 mphDrizzle
3:35 AM43.0 °F34.0 °F71 %29.39 in10.0 miWest (280°)24.2 mph33.4 mphLight Drizzle
3:55 AM43.7 °F32.4 °F64 %29.41 in10.0 miWSW (250°)10.4 mph27.6 mphRainLight Rain
4:15 AM42.4 °F32.2 °F67 %29.41 in10.0 miWest (270°)18.4 mph33.4 mphLight Drizzle
4:35 AM42.4 °F30.0 °F61 %29.44 in10.0 miWest (260°)20.7 mph29.9 mphRainLight Rain
4:55 AM41.5 °F27.5 °F57 %29.46 in10.0 miWest (260°)16.1 mph29.9 mphMostly Cloudy
5:15 AM40.3 °F27.5 °F60 %29.49 in10.0 miWNW (300°)15.0 mph31.1 mphOvercast
5:35 AM34.2 °F29.5 °F83 %29.52 in1.2 miWSW (250°)12.7 mph26.5 mphSnowLight Snow
5:55 AM35.1 °F28.2 °F76 %29.53 in7.0 miWest (260°)13.8 mph20.7 mphSnowLight Snow
6:15 AM34.7 °F27.3 °F74 %29.56 in4.0 miWest (280°)17.3 mph25.3 mphSnowLight Snow
6:35 AM33.4 °F28.4 °F82 %29.57 in4.0 miNW (320°)16.1 mph24.2 mphSnowLight Snow
6:55 AM33.6 °F27.7 °F79 %29.58 in7.0 miWest (260°)26.5 mph38.0 mphSnowLight Snow
7:15 AM34.5 °F26.1 °F71 %29.60 in10.0 miWest (270°)17.3 mph29.9 mphSnowLight Snow
7:35 AM35.4 °F22.8 °F60 %29.62 in4.0 miWSW (250°)24.2 mph38.0 mphSnowLight Snow
7:55 AM35.8 °F21.4 °F56 %29.62 in10.0 miWNW (290°)19.6 mph34.5 mphOvercast
8:15 AM36.1 °F22.8 °F58 %29.63 in10.0 miWest (270°)13.8 mph27.6 mphOvercast
8:35 AM36.1 °F23.4 °F60 %29.63 in7.0 miWest (260°)18.4 mph27.6 mphSnowLight Snow
8:55 AM36.5 °F22.1 °F56 %29.64 in7.0 miWSW (250°)26.5 mph41.4 mphOvercast
9:15 AM36.1 °F22.6 °F58 %29.66 in5.0 miWest (270°)20.7 mph26.5 mphSnowLight Snow
9:35 AM36.3 °F22.3 °F57 %29.67 in10.0 miWest (280°)12.7 mph24.2 mphOvercast
9:55 AM36.5 °F19.9 °F51 %29.69 in10.0 miWSW (250°)17.3 mph25.3 mphOvercast
10:15 AM36.5 °F19.2 °F50 %29.70 in10.0 miWest (280°)17.3 mph27.6 mphOvercast
10:35 AM36.9 °F20.5 °F52 %29.71 in10.0 miWNW (300°)11.5 mph17.3 mphOvercast
10:55 AM36.1 °F20.7 °F53 %29.73 in10.0 miWSW (240°)17.3 mph36.8 mphOvercast
11:15 AM35.8 °F19.9 °F53 %29.74 in10.0 miWest (260°)24.2 mph35.7 mphOvercast
11:35 AM35.6 °F20.1 °F53 %29.75 in10.0 miWSW (250°)17.3 mph31.1 mphOvercast
11:55 AM34.9 °F19.8 °F54 %29.76 in10.0 miWSW (240°)17.3 mph31.1 mphOvercast
12:15 PM34.2 °F18.3 °F52 %29.76 in10.0 miWest (270°)10.4 mph24.2 mphOvercast
12:35 PM34.3 °F18.5 °F52 %29.75 in10.0 miWest (260°)12.7 mph29.9 mphOvercast
12:55 PM34.5 °F19.8 °F55 %29.75 in7.0 miWSW (240°)10.4 mph20.7 mphOvercast
1:15 PM33.8 °F22.3 °F63 %29.76 in2.5 miWNW (290°)28.8 mph36.8 mphSnowLight Snow
1:35 PM34.2 °F20.8 °F58 %29.75 in7.0 miWest (260°)12.7 mph21.9 mphSnowLight Snow
1:55 PM35.8 °F19.0 °F51 %29.75 in10.0 miWSW (250°)20.7 mph26.5 mphOvercast
2:15 PM34.9 °F16.0 °F46 %29.76 in7.0 miWest (260°)24.2 mph36.8 mphOvercast
2:35 PM34.9 °F16.0 °F46 %29.76 in7.0 miWest (260°)21.9 mph36.8 mphOvercast
2:55 PM34.3 °F18.5 °F52 %29.77 in7.0 miWSW (240°)15.0 mph31.1 mphSnowLight Snow
3:15 PM32.9 °F21.9 °F64 %29.78 in2.5 miWest (270°)11.5 mphSnowLight Snow
3:35 PM33.3 °F22.6 °F65 %29.80 in7.0 miSW (230°)12.7 mph21.9 mphSnowLight Snow
3:55 PM34.0 °F18.3 °F53 %29.80 in10.0 miWSW (240°)19.6 mph33.4 mphOvercast
4:15 PM33.1 °F16.5 °F51 %29.82 in10.0 miWNW (290°)24.2 mph41.4 mphOvercast
4:35 PM32.2 °F16.0 °F51 %29.83 in10.0 miWest (260°)16.1 mph27.6 mphOvercast
4:55 PM31.8 °F12.4 °F45 %29.84 in10.0 miSW (230°)17.3 mph32.2 mphOvercast
5:15 PM31.8 °F11.8 °F44 %29.85 in10.0 miWNW (290°)12.7 mph19.6 mphOvercast
5:35 PM31.3 °F12.9 °F47 %29.87 in10.0 miWNW (290°)19.6 mph29.9 mphOvercast
5:55 PM31.1 °F12.6 °F46 %29.87 in10.0 miWest (260°)13.8 mph21.9 mphOvercast
6:15 PM31.1 °F13.1 °F47 %29.87 in10.0 miWest (280°)11.5 mph16.1 mphOvercast
6:35 PM31.3 °F13.6 °F48 %29.87 in10.0 miWest (260°)6.9 mphOvercast
6:55 PM31.6 °F14.0 °F48 %29.88 in10.0 miWest (270°)8.1 mph17.3 mphOvercast
7:15 PM31.5 °F15.3 °F51 %29.89 in10.0 miWSW (250°)15.0 mph20.7 mphOvercast
7:35 PM31.6 °F15.8 °F52 %29.88 in10.0 miWSW (240°)12.7 mph23.0 mphOvercast
7:55 PM31.8 °F14.9 °F50 %29.88 in10.0 miWSW (240°)13.8 mph28.8 mphMostly Cloudy
8:15 PM31.6 °F15.1 °F50 %29.87 in10.0 miWest (270°)16.1 mph25.3 mphMostly Cloudy
8:35 PM31.8 °F15.3 °F50 %29.88 in10.0 miWSW (250°)18.4 mph26.5 mphMostly Cloudy
8:55 PM31.8 °F15.6 °F51 %29.88 in10.0 miWSW (240°)10.4 mph25.3 mphOvercast
9:15 PM32.0 °F15.4 °F51 %29.88 in10.0 miWSW (240°)18.4 mph29.9 mphOvercast
9:35 PM32.0 °F14.7 °F49 %29.89 in10.0 miWSW (240°)13.8 mph38.0 mphMostly Cloudy
9:55 PM32.0 °F14.9 °F49 %29.87 in10.0 miWSW (250°)17.3 mph28.8 mphOvercast
10:15 PM32.0 °F14.7 °F49 %29.88 in10.0 miWSW (240°)18.4 mph31.1 mphOvercast
10:35 PM31.8 °F15.4 °F51 %29.87 in10.0 miWest (270°)19.6 mph25.3 mphOvercast
10:55 PM31.3 °F16.5 °F54 %29.87 in10.0 miWest (260°)16.1 mph28.8 mphOvercast
11:15 PM31.5 °F16.2 °F53 %29.87 in10.0 miWSW (250°)10.4 mph26.5 mphOvercast
11:35 PM31.3 °F17.8 °F57 %29.85 in10.0 miWest (270°)8.1 mphOvercast
11:55 PM31.6 °F17.4 °F56 %29.83 in10.0 miCalmOvercast
Hourly data recorded from KW99, located miles away from Mount Storm, West Virginia







STORIES FROM OUR PARTNERS